Temperature
25 24 23 23 24 26 27 27 29 28 29 30 30 29 27 26 24 22 22 22 21 21 21 21 21 21 20 20 20 20 20 20 19 19 19 19 19 19 19 19 19 19 19 19 19 19 19 19 19
24 23 23 24 25 26 26 28 28 29 30 29 29 28 27 25 24 22 22 22 21 21 21 21 21 21 20 20 20 20 20 20 20 19 19 19 19 19 19 19 19 19 19 19 19 19 19 19 19
24 24 25 25 27 27 27 28 29 30 29 29 28 26 25 25 24 22 22 21 21 20 20 21 21 20 20 20 20 20 20 20 20 20 19 19 19 19 19 19 19 19 19 19 19 19 19 19 19
25 26 27 27 28 28 28 29 29 29 29 28 28 26 24 24 23 22 22 22 21 20 20 21 20 20 20 20 20 20 20 20 20 20 19 19 19 19 19 19 19 19 19 19 19 19 19 19 19
26 27 26 26 27 28 29 29 29 29 29 28 26 25 24 23 23 22 22 22 21 20 20 21 20 20 20 20 20 20 20 20 20 19 19 19 19 19 19 19 19 19 19 19 19 19 19 18 18
28 27 25 25 27 27 27 28 28 27 27 27 26 25 23 23 23 23 22 22 22 21 20 20 20 20 20 20 20 19 19 19 19 19 19 19 19 19 19 19 19 19 19 19 19 19 19 18 18
28 26 26 26 26 27 27 27 26 26 25 25 25 24 23 22 22 22 22 22 22 21 20 20 20 20 20 20 20 20 19 19 19 19 19 19 19 19 19 19 19 19 19 19 19 19 19 18 18
28 27 26 26 25 26 27 27 25 24 23 22 22 22 21 21 22 22 22 22 22 21 21 20 20 20 20 20 20 19 19 19 19 19 19 19 19 19 19 19 19 19 19 19 19 19 19 18 18
28 26 24 25 25 25 26 26 24 23 22 21 20 20 20 20 21 21 21 21 21 21 20 20 20 19 19 19 19 19 19 19 19 19 19 19 19 19 19 19 19 19 19 19 19 19 19 18 18
29 25 25 26 26 25 23 23 24 22 20 20 19 19 19 20 20 20 20 20 20 20 20 20 20 19 19 19 19 19 19 19 19 19 19 19 19 18 18 18 18 18 19 19 19 19 19 18 18
29 27 27 27 26 25 23 21 20 21 19 18 18 18 19 19 19 19 19 19 19 19 19 20 20 20 20 19 19 19 19 19 19 19 18 18 18 18 18 18 18 18 19 19 19 19 19 19 18
27 27 27 26 25 25 23 21 19 18 17 17 18 18 18 18 18 18 18 18 18 18 19 19 19 19 20 20 19 19 19 19 19 19 18 18 18 18 18 18 18 18 19 19 18 19 19 19 18
26 25 24 24 23 21 20 19 18 18 18 18 18 18 18 18 18 18 18 18 18 18 18 18 18 19 19 19 19 19 19 19 19 18 18 18 18 18 18 18 18 18 18 18 18 18 18 19 19
27 26 25 25 24 23 21 20 19 18 18 18 19 19 18 18 18 18 18 18 18 18 18 18 18 18 18 19 19 19 19 19 19 19 18 18 18 18 18 18 18 18 18 18 18 18 19 19 20
27 26 26 25 24 23 22 20 19 18 19 19 19 19 19 19 18 18 18 17 17 17 17 17 17 17 18 18 18 18 18 18 18 19 19 18 18 18 18 18 18 18 18 18 18 19 19 19 19
28 26 24 24 25 24 23 19 19 19 19 19 19 19 19 19 19 18 17 17 17 17 17 17 17 17 17 17 17 18 18 18 18 18 18 18 18 18 18 18 19 18 18 18 18 19 19 19 19
27 25 23 23 25 25 23 19 19 19 20 20 20 19 19 19 18 17 17 16 16 16 16 16 16 16 16 16 16 17 17 17 18 18 18 18 18 18 18 18 18 18 18 18 18 18 19 19 19
26 26 25 24 24 23 21 20 20 20 20 20 19 19 19 18 17 17 16 16 15 16 15 15 15 15 15 15 16 16 16 17 17 17 18 18 18 18 18 18 18 18 18 18 18 18 18 18 19
27 26 26 24 23 23 22 21 20 20 20 19 19 19 18 17 17 16 15 15 15 15 15 14 15 15 15 15 15 15 16 16 16 17 17 17 18 18 18 18 18 18 18 18 18 18 18 18 18
27 26 26 24 23 23 22 21 21 20 19 19 18 18 17 16 16 15 15 14 14 14 14 14 14 14 14 14 14 14 15 15 16 16 16 17 17 17 17 17 18 18 18 18 18 18 17 18 18
26 25 24 24 23 23 22 21 20 20 19 19 18 17 16 16 15 15 14 14 13 13 13 13 13 13 14 14 14 14 14 15 15 15 16 16 16 17 17 17 17 17 17 17 18 17 17 17 17
24 24 23 23 22 22 22 20 19 20 19 19 18 17 16 15 15 14 14 13 13 13 13 13 13 13 13 13 14 14 14 14 14 15 15 15 16 16 17 17 17 17 17 17 17 17 17 17 17
23 23 23 23 22 22 23 22 19 20 18 18 18 17 16 15 14 14 13 13 13 13 13 13 13 13 13 13 13 13 14 14 14 14 15 15 15 16 16 16 16 17 17 17 17 17 17 17 17
23 23 23 23 23 22 23 22 19 18 18 18 17 17 16 15 14 14 13 13 13 13 13 12 12 13 13 13 13 13 13 13 14 14 14 15 15 15 16 16 16 16 17 17 17 17 17 17 17
24 23 22 22 21 22 22 21 18 18 18 18 17 17 16 15 14 14 13 13 13 13 13 12 12 12 12 12 13 13 13 13 13 14 14 14 15 15 15 15 16 16 16 16 16 16 16 16 16
24 23 22 21 22 21 21 20 18 19 18 18 17 16 16 15 15 14 14 13 13 13 13 12 12 12 12 12 12 13 13 13 13 13 13 14 14 14 15 15 15 15 16 16 16 16 16 16 16
23 23 23 22 23 23 22 20 18 19 19 18 17 17 16 15 15 14 14 14 13 13 13 12 12 12 12 12 12 12 12 12 13 13 13 13 14 14 14 14 15 15 15 15 15 15 15 16 16
23 22 23 22 21 21 22 21 19 18 18 18 18 17 16 16 15 15 14 14 14 13 13 13 12 12 12 12 12 12 12 12 12 13 13 13 13 13 14 14 14 14 14 14 15 15 15 15 15
22 23 22 23 22 21 20 19 20 19 18 18 18 17 16 16 16 15 15 14 14 14 13 13 12 12 12 12 12 12 12 12 12 12 12 12 13 13 13 13 14 14 14 14 14 14 14 15 15
22 21 21 21 21 22 20 19 20 19 18 18 17 17 17 16 16 16 15 15 14 14 13 13 12 12 12 12 12 12 11 11 12 12 12 12 12 12 13 13 13 13 13 14 14 14 14 14 14
Wind_Speed
10 9 7 3 3 2 11 10 12 11 11 11 11 10 17 15 9 8 5 12 18 17 17 15 13 12 11 10 10 9 8 8 8 7 6 6 5 5 4 3 3 2 2 2 2 3 3 3 3
10 8 5 3 0 8 9 9 11 13 12 12 15 17 18 15 13 9 7 14 17 16 16 15 14 12 11 10 9 9 8 8 8 7 7 6 5 5 4 3 2 2 2 2 2 2 2 2 2
11 7 4 2 6 9 9 8 9 13 15 14 16 17 12 9 12 9 11 14 16 14 15 16 14 12 10 9 9 8 8 8 7 7 6 6 5 5 4 3 2 2 1 1 2 2 2 2 2
6 4 3 2 11 10 9 8 10 13 16 18 15 12 13 12 12 13 12 14 15 14 16 15 13 11 10 8 8 7 7 7 7 6 6 6 5 5 4 4 3 2 1 1 2 2 2 2 1
5 2 3 5 10 11 11 12 12 13 16 17 19 17 15 15 14 13 10 13 13 14 16 15 13 11 9 8 8 7 7 7 7 6 6 6 6 5 5 4 3 3 2 1 1 2 2 2 2
3 0 2 4 9 10 11 12 13 15 15 16 16 17 13 13 11 9 8 8 10 13 15 15 13 11 10 9 8 8 8 7 7 7 7 7 7 6 6 5 4 3 3 2 2 2 3 3 3
4 1 2 6 8 8 10 11 13 14 16 15 11 13 9 11 8 7 6 6 7 9 12 14 14 13 12 11 10 10 9 9 8 8 8 8 8 8 7 7 6 5 4 4 3 4 4 4 4
4 3 2 4 7 7 11 13 15 15 13 14 13 10 7 8 8 8 8 7 6 5 6 7 11 13 14 14 14 13 12 11 10 10 10 10 9 9 10 9 9 7 6 6 5 5 5 5 5
3 3 4 2 5 7 10 12 14 14 15 17 16 14 11 12 13 12 11 10 10 9 7 5 3 3 7 12 15 15 14 13 12 11 12 11 11 13 13 13 13 10 9 7 7 7 7 7 8
1 4 5 6 10 10 13 13 7 10 16 14 14 14 13 12 12 12 11 10 10 10 10 9 8 5 3 1 7 12 11 12 13 12 13 13 13 13 14 15 16 13 11 10 9 9 9 9 10
6 6 8 9 11 11 11 13 15 9 11 10 10 12 11 12 12 11 10 9 9 9 9 9 9 8 7 4 2 2 3 7 10 12 13 13 13 11 11 11 13 13 12 11 11 11 11 12 12
7 10 9 9 10 10 10 8 11 14 8 7 8 9 11 11 10 9 8 7 6 7 8 8 9 7 7 6 4 1 0 2 4 7 10 10 7 6 7 8 12 12 12 11 11 10 14 15 15
10 9 12 14 17 18 17 15 12 10 7 5 6 8 9 9 8 7 6 5 4 4 5 5 6 7 6 5 4 4 1 2 4 5 7 10 6 7 5 5 8 11 12 10 7 9 9 9 8
10 11 11 11 12 11 15 12 8 7 5 5 6 7 7 7 7 7 8 7 7 6 4 3 4 4 4 4 4 4 4 4 3 3 7 9 8 5 4 4 3 5 8 9 8 6 5 3 3
9 10 9 8 10 12 10 11 8 5 4 6 6 6 6 6 7 8 9 9 9 8 7 5 4 2 3 4 4 4 5 5 3 4 7 7 7 7 5 5 4 4 5 7 7 7 5 4 3
10 10 6 3 3 6 2 6 7 3 4 5 5 5 5 6 8 9 10 11 10 9 8 7 7 5 4 3 4 4 5 5 4 5 6 7 6 7 5 5 4 4 4 3 4 3 2 3 3
8 6 5 4 2 3 6 7 5 3 4 5 6 7 7 8 10 10 11 11 11 10 9 8 7 7 6 4 3 4 4 4 5 5 5 7 7 7 5 5 4 4 3 3 2 3 2 3 3
7 8 3 5 6 7 7 7 5 4 5 7 7 8 9 11 11 11 12 11 11 11 10 9 8 7 6 4 5 4 4 4 4 4 5 7 7 7 5 5 6 4 3 3 2 3 3 2 3
11 11 7 6 6 4 5 6 5 4 6 8 9 10 11 12 13 12 12 12 11 11 11 10 9 8 6 4 5 5 5 5 5 4 6 7 7 8 6 6 7 6 5 5 4 3 4 3 2
10 10 6 6 5 1 3 5 5 4 6 7 10 11 12 12 13 12 12 12 13 12 11 11 10 9 8 6 5 5 6 6 6 5 4 6 7 8 7 8 7 7 6 7 6 5 4 3 3
9 6 8 4 1 3 4 5 7 5 6 8 9 10 11 12 13 13 13 13 12 12 12 11 10 10 9 9 6 6 5 5 5 5 5 5 6 6 6 7 7 8 8 8 8 8 8 5 3
7 7 5 5 5 5 6 2 7 5 6 8 9 10 10 10 11 11 12 12 12 12 12 12 11 11 10 9 7 8 6 6 6 6 5 6 5 4 5 6 7 7 7 7 8 9 7 7 5
6 5 6 7 8 8 6 3 6 3 7 9 9 9 9 10 10 10 11 10 11 11 10 10 10 10 10 10 9 7 7 6 6 6 6 5 4 4 4 5 6 6 6 7 8 8 9 8 7
5 7 7 7 8 7 3 2 5 4 7 8 9 9 9 9 9 9 10 9 9 9 9 9 10 10 10 10 10 9 9 9 8 7 5 4 3 3 2 3 4 5 5 7 8 8 10 9 9
5 7 5 5 5 1 4 2 5 6 6 6 7 8 8 7 8 8 9 9 8 8 9 9 9 9 10 10 9 10 10 9 8 7 5 5 3 3 3 2 1 2 4 5 6 7 8 9 9
5 5 6 5 3 3 3 3 5 5 3 4 5 6 7 7 6 7 7 7 6 7 7 8 8 8 9 9 8 9 9 7 7 7 6 5 4 3 3 2 1 0 1 2 4 6 7 8 8
7 5 5 5 9 4 5 6 6 5 3 3 5 6 7 6 5 6 6 6 6 6 6 6 7 7 8 8 8 8 8 8 9 9 8 5 5 4 5 4 3 3 2 1 0 2 4 5 7
2 5 6 5 6 5 3 3 3 4 2 3 4 5 5 6 6 6 5 5 5 5 4 5 6 7 7 7 7 7 8 8 7 8 9 8 7 6 5 5 4 4 3 3 3 2 1 2 3
5 2 4 5 2 4 3 3 5 4 3 3 4 4 4 5 6 5 4 5 4 5 5 5 6 6 7 7 7 7 7 8 8 8 8 7 7 8 8 7 6 6 5 4 3 2 3 2 2
2 5 6 5 5 2 2 4 6 5 2 1 3 4 4 4 4 4 4 4 5 5 5 5 6 6 6 6 7 6 7 8 9 9 9 9 9 8 8 8 8 8 8 7 5 4 4 3 3
Wind_Direction
240 229 225 254 260 81 66 59 53 38 40 47 46 58 68 57 54 87 155 130 119 120 128 132 130 127 122 120 119 122 124 126 128 132 134 137 137 131 126 120 109 96 86 83 77 73 71 70 69
254 218 226 253 324 79 69 60 59 43 37 55 55 55 65 63 79 103 127 113 120 124 137 134 135 132 131 130 129 130 131 129 130 133 135 139 140 139 138 136 128 120 105 98 97 95 90 87 84
260 235 244 236 75 78 78 64 62 57 44 55 73 60 49 52 84 107 116 126 122 127 128 129 139 138 139 140 140 141 142 140 141 144 146 148 150 152 152 149 145 140 129 119 113 109 112 113 106
261 243 253 60 78 70 71 70 60 61 54 56 64 67 59 52 85 111 132 129 121 123 122 134 142 146 149 152 154 156 154 153 156 159 161 164 165 167 167 164 163 159 151 135 131 136 152 153 142
244 269 31 67 77 63 53 59 63 58 52 65 81 84 75 70 88 113 127 123 128 128 129 140 148 154 160 166 169 169 169 169 172 173 176 178 179 183 182 179 177 173 171 161 158 169 174 175 172
270 6 82 95 83 71 54 48 56 56 48 49 79 87 76 73 82 97 109 124 131 132 135 142 155 162 171 180 183 185 186 188 190 191 192 193 195 197 196 195 191 190 191 186 184 190 189 186 185
289 285 167 112 89 73 71 61 59 58 41 31 54 86 75 62 61 73 86 87 104 125 135 151 164 173 181 188 192 194 198 202 205 206 204 203 205 205 205 202 199 197 197 196 195 196 195 193 193
300 310 62 80 94 59 61 67 59 58 49 33 39 62 60 45 52 55 50 51 60 77 115 154 167 176 183 191 198 199 202 207 211 212 210 211 211 213 212 205 202 200 200 201 200 200 201 199 201
263 34 60 60 108 73 58 77 78 67 64 56 54 54 45 40 45 45 40 36 31 28 28 35 79 157 184 192 197 198 204 209 212 214 216 215 217 215 210 217 196 195 200 203 203 204 205 206 210
29 68 66 60 89 94 62 46 44 72 52 41 41 42 39 43 45 44 36 29 25 16 13 19 16 19 8 253 177 188 201 204 210 215 210 214 227 227 213 210 188 192 199 204 208 209 212 218 216
55 78 83 82 96 106 91 59 36 77 51 33 29 30 36 41 43 40 36 28 19 11 8 3 2 6 9 6 32 182 194 196 210 221 218 218 234 238 210 181 183 192 199 206 206 209 219 221 220
78 58 71 70 69 76 78 80 61 57 58 42 42 36 36 37 39 36 32 29 23 11 1 356 353 355 357 354 349 356 112 216 222 230 227 221 234 248 223 196 188 189 198 207 195 208 218 223 218
109 97 87 88 87 87 88 85 80 64 61 55 52 49 42 36 29 32 27 24 23 9 353 351 350 351 350 349 337 334 299 235 237 241 238 220 211 231 239 215 201 198 196 198 200 211 221 215 210
121 127 127 119 109 100 95 84 74 55 47 48 43 48 39 31 21 17 16 5 3 355 346 356 347 346 338 331 324 313 315 301 277 232 237 231 215 221 238 235 217 219 206 187 192 219 241 210 209
139 152 147 143 136 143 118 74 65 50 37 36 25 33 27 22 19 20 9 355 354 344 338 344 321 320 308 309 304 299 294 294 279 259 250 240 217 224 226 239 231 234 230 209 193 216 225 196 200
197 192 160 118 161 185 188 84 70 40 27 27 13 12 11 19 15 19 6 352 349 338 333 334 331 328 308 288 282 281 276 273 266 258 259 254 230 220 227 231 232 233 240 243 197 219 211 189 196
220 240 156 144 49 76 80 96 86 48 18 18 12 3 7 11 14 13 5 353 345 335 334 337 337 323 314 311 284 267 272 264 262 255 245 247 248 232 213 225 226 225 222 243 225 197 202 203 203
331 315 276 139 87 80 91 110 100 52 24 10 8 5 11 9 10 10 1 354 344 341 340 339 328 321 327 326 317 303 289 277 262 257 253 242 241 239 218 212 216 209 208 221 235 221 209 208 203
314 308 311 104 104 82 107 120 102 54 36 16 9 10 14 7 1 8 358 354 347 346 346 337 334 338 335 330 316 312 306 296 280 259 252 242 231 231 228 222 211 202 197 200 206 216 223 220 224
296 297 305 107 95 41 155 146 124 86 52 35 16 10 11 2 356 1 359 358 353 351 345 338 344 338 335 331 317 305 300 293 284 277 271 257 236 221 224 221 213 203 193 194 197 201 206 208 203
315 341 343 344 88 229 215 184 146 123 71 45 28 17 11 2 359 0 359 357 357 356 350 348 347 342 341 335 326 319 309 301 299 297 280 265 252 228 212 218 214 206 197 198 196 198 200 199 209
334 33 341 302 272 233 207 222 133 123 62 35 26 17 11 9 3 1 360 360 1 359 355 353 354 353 349 343 338 330 318 308 301 300 289 283 268 246 216 214 216 205 200 199 198 197 191 184 199
339 335 291 271 259 268 233 246 123 88 28 20 19 15 15 14 6 4 3 0 2 1 358 357 356 357 352 348 343 338 328 313 305 307 300 294 288 268 231 215 212 210 202 200 202 195 189 192 191
291 269 245 240 250 250 234 285 108 55 18 9 13 14 13 11 8 6 4 4 6 5 1 1 360 359 355 354 353 351 345 336 334 330 323 316 311 303 296 249 223 213 210 206 206 201 195 197 194
262 291 271 219 218 155 72 59 79 59 29 16 9 12 13 13 9 4 3 1 359 1 1 359 359 358 357 358 358 355 353 345 342 339 335 340 340 330 322 300 249 227 223 218 214 203 201 202 196
310 299 318 316 331 138 151 93 99 82 59 34 24 22 19 16 9 5 3 356 355 2 1 357 357 359 360 357 359 1 360 355 351 350 353 358 349 340 347 350 336 275 256 241 223 208 205 203 203
322 340 342 301 292 279 126 118 135 144 100 50 30 26 22 7 8 5 1 356 358 4 2 354 358 2 1 358 358 1 1 4 4 5 3 3 1 357 7 17 34 47 40 29 326 204 201 192 198
325 325 305 294 338 326 128 123 124 130 65 36 27 28 20 4 4 0 357 358 358 0 1 2 7 11 6 3 8 12 5 6 8 8 7 4 3 3 10 17 37 46 44 46 51 60 114 169 177
334 305 320 294 284 328 346 75 82 90 67 25 18 22 15 5 354 354 358 359 7 4 12 17 12 19 8 6 6 12 9 7 11 12 7 6 8 12 20 23 29 33 34 36 47 47 63 80 133
340 351 333 328 349 324 285 108 105 113 107 39 14 14 12 354 343 357 7 7 17 9 13 28 18 18 15 5 4 12 17 18 19 15 10 14 16 20 26 26 31 32 28 24 27 36 50 60 76
Height
1506 1506 1508 1510 1511 1512 1516 1511 1505 1503 1501 1501 1501 1502 1507 1513 1519 1530 1530 1531 1531 1532 1534 1537 1539 1541 1542 1544 1546 1547 1548 1550 1551 1552 1554 1555 1556 1556 1557 1558 1559 1559 1560 1560 1561 1561 1562 1562 1563
1506 1509 1511 1511 1514 1522 1521 1510 1507 1505 1504 1503 1504 1507 1511 1517 1522 1527 1530 1532 1533 1534 1536 1538 1540 1542 1543 1545 1546 1548 1549 1550 1552 1553 1554 1555 1556 1557 1557 1558 1559 1559 1560 1560 1561 1561 1562 1563 1563
1508 1511 1512 1510 1512 1521 1520 1510 1507 1506 1506 1505 1509 1514 1518 1522 1525 1529 1532 1534 1535 1536 1538 1539 1541 1543 1544 1546 1547 1548 1550 1551 1552 1553 1554 1555 1556 1557 1558 1558 1559 1559 1560 1560 1561 1561 1562 1563 1563
1511 1512 1510 1511 1515 1512 1511 1509 1508 1509 1509 1510 1512 1518 1525 1527 1529 1531 1534 1536 1538 1539 1539 1541 1542 1543 1545 1546 1547 1549 1550 1551 1552 1553 1554 1555 1556 1557 1557 1558 1559 1559 1559 1560 1561 1561 1562 1563 1564
1512 1512 1515 1518 1515 1511 1510 1510 1511 1512 1513 1514 1518 1525 1529 1532 1533 1534 1537 1538 1539 1540 1540 1542 1543 1544 1545 1546 1547 1549 1550 1551 1552 1553 1554 1555 1556 1556 1557 1558 1558 1558 1559 1559 1560 1561 1562 1562 1563
1513 1510 1524 1528 1519 1515 1514 1514 1514 1516 1518 1519 1521 1526 1533 1536 1536 1538 1539 1540 1541 1541 1541 1543 1544 1545 1546 1546 1547 1548 1549 1550 1551 1552 1553 1554 1555 1556 1556 1557 1557 1558 1558 1559 1559 1560 1561 1562 1563
1513 1513 1521 1520 1522 1519 1517 1518 1520 1521 1523 1525 1526 1529 1536 1538 1539 1540 1541 1542 1543 1543 1543 1543 1544 1545 1546 1547 1547 1548 1549 1550 1550 1551 1552 1553 1554 1555 1556 1556 1556 1557 1557 1558 1558 1559 1560 1561 1562
1512 1511 1518 1521 1524 1524 1520 1522 1525 1527 1531 1531 1530 1534 1540 1541 1541 1541 1542 1543 1544 1544 1544 1544 1544 1544 1544 1545 1546 1547 1548 1549 1549 1550 1551 1552 1553 1554 1554 1555 1555 1556 1556 1557 1557 1558 1559 1560 1562
1512 1518 1529 1526 1523 1526 1524 1526 1530 1534 1536 1537 1539 1541 1542 1542 1541 1542 1542 1543 1543 1543 1544 1544 1544 1544 1544 1544 1545 1546 1547 1548 1548 1549 1549 1550 1551 1552 1553 1553 1554 1555 1555 1556 1556 1557 1559 1560 1561
1512 1524 1524 1520 1520 1526 1529 1531 1533 1538 1540 1541 1543 1544 1543 1543 1543 1543 1543 1543 1543 1543 1543 1543 1543 1543 1543 1544 1544 1544 1545 1546 1547 1547 1547 1548 1549 1550 1551 1552 1553 1553 1554 1554 1555 1557 1558 1559 1560
1515 1521 1522 1523 1525 1528 1532 1537 1538 1539 1545 1548 1548 1547 1546 1545 1544 1544 1544 1543 1543 1542 1542 1541 1542 1542 1542 1542 1543 1543 1544 1544 1545 1545 1545 1546 1547 1548 1549 1550 1551 1552 1552 1553 1554 1555 1557 1558 1559
1520 1523 1524 1526 1528 1530 1534 1540 1545 1547 1551 1551 1550 1549 1548 1547 1546 1545 1545 1544 1543 1542 1541 1540 1539 1539 1540 1540 1541 1541 1542 1542 1542 1543 1543 1543 1544 1545 1546 1547 1548 1549 1550 1551 1552 1554 1555 1557 1559
1523 1528 1530 1532 1534 1537 1540 1545 1548 1552 1553 1552 1552 1551 1550 1549 1548 1547 1546 1545 1543 1541 1540 1538 1538 1537 1537 1537 1537 1538 1538 1539 1539 1539 1540 1541 1541 1541 1543 1544 1545 1546 1547 1549 1551 1552 1554 1557 1559
1523 1527 1530 1533 1535 1538 1541 1547 1550 1554 1554 1553 1552 1551 1551 1550 1549 1548 1547 1546 1544 1542 1540 1538 1536 1535 1534 1533 1534 1534 1535 1535 1536 1536 1537 1538 1538 1538 1539 1541 1542 1544 1546 1548 1549 1551 1553 1556 1558
1524 1527 1530 1532 1534 1538 1539 1549 1554 1555 1554 1554 1553 1552 1552 1551 1550 1549 1547 1546 1544 1542 1540 1538 1536 1534 1532 1531 1531 1531 1531 1531 1532 1532 1534 1534 1534 1534 1536 1537 1539 1541 1543 1545 1547 1549 1551 1554 1555
1521 1525 1535 1533 1532 1535 1539 1555 1556 1556 1555 1554 1553 1553 1552 1551 1550 1549 1547 1545 1543 1541 1539 1537 1535 1533 1531 1529 1528 1527 1527 1527 1527 1528 1528 1529 1530 1531 1532 1533 1535 1537 1539 1541 1544 1546 1549 1551 1553
1520 1529 1538 1537 1533 1533 1540 1553 1556 1556 1555 1554 1554 1553 1552 1551 1550 1549 1547 1545 1542 1540 1538 1535 1533 1531 1529 1527 1525 1524 1523 1523 1523 1523 1524 1525 1526 1527 1528 1529 1531 1534 1535 1537 1540 1543 1545 1548 1550
1530 1528 1529 1534 1536 1537 1544 1552 1554 1555 1556 1555 1554 1553 1552 1551 1551 1548 1546 1543 1541 1538 1536 1533 1531 1529 1527 1525 1523 1521 1520 1519 1519 1519 1519 1520 1520 1522 1523 1524 1526 1529 1531 1533 1536 1538 1541 1544 1547
1525 1526 1529 1534 1535 1539 1544 1549 1553 1555 1556 1556 1555 1554 1553 1553 1551 1548 1546 1543 1539 1537 1534 1531 1529 1527 1524 1522 1520 1518 1516 1515 1514 1514 1514 1515 1515 1517 1519 1520 1522 1524 1526 1528 1532 1534 1537 1540 1543
1525 1527 1528 1533 1535 1538 1543 1548 1551 1555 1556 1557 1557 1556 1554 1553 1551 1548 1545 1542 1538 1535 1532 1529 1526 1524 1522 1519 1517 1515 1513 1511 1511 1510 1509 1510 1510 1511 1513 1515 1516 1518 1520 1523 1526 1529 1532 1535 1539
1527 1531 1532 1535 1536 1537 1542 1549 1551 1553 1555 1557 1557 1557 1556 1554 1551 1548 1545 1541 1537 1534 1530 1527 1524 1521 1519 1516 1514 1512 1510 1508 1507 1506 1505 1505 1505 1507 1507 1509 1510 1512 1515 1517 1520 1523 1527 1530 1533
1534 1534 1535 1536 1541 1540 1541 1554 1554 1552 1555 1556 1557 1557 1556 1554 1551 1548 1545 1541 1537 1533 1529 1526 1522 1519 1516 1514 1511 1509 1507 1505 1503 1502 1501 1501 1501 1502 1503 1504 1505 1507 1509 1511 1514 1517 1520 1524 1527
1537 1536 1536 1536 1538 1540 1536 1545 1558 1551 1556 1557 1557 1557 1556 1554 1552 1549 1545 1541 1537 1533 1529 1525 1522 1518 1515 1512 1509 1507 1505 1502 1501 1499 1498 1498 1497 1498 1498 1499 1500 1502 1504 1506 1509 1511 1514 1517 1521
1536 1535 1533 1534 1537 1545 1536 1544 1559 1556 1557 1557 1557 1557 1556 1554 1552 1549 1545 1541 1537 1533 1529 1525 1521 1518 1515 1512 1508 1506 1503 1500 1498 1496 1495 1494 1494 1494 1494 1495 1496 1497 1499 1501 1503 1505 1508 1511 1515
1533 1538 1543 1545 1549 1545 1537 1545 1558 1555 1556 1557 1557 1557 1556 1554 1552 1549 1545 1541 1538 1534 1530 1526 1522 1519 1515 1512 1508 1505 1502 1499 1497 1495 1493 1492 1492 1492 1491 1491 1492 1493 1495 1496 1498 1501 1502 1505 1509
1534 1537 1548 1554 1545 1545 1540 1548 1554 1553 1556 1557 1557 1557 1556 1554 1552 1549 1546 1542 1538 1535 1530 1527 1523 1520 1516 1512 1509 1505 1502 1499 1497 1495 1493 1492 1491 1490 1489 1489 1490 1490 1491 1493 1494 1496 1498 1500 1503
1537 1533 1534 1542 1534 1537 1540 1548 1552 1552 1554 1556 1556 1556 1555 1554 1551 1549 1546 1543 1539 1535 1532 1528 1524 1521 1517 1514 1510 1507 1503 1501 1498 1496 1494 1492 1491 1490 1490 1489 1489 1489 1489 1490 1491 1492 1494 1496 1499
1539 1539 1538 1540 1548 1549 1543 1545 1551 1552 1553 1554 1555 1555 1555 1553 1551 1549 1546 1543 1540 1536 1533 1529 1526 1523 1519 1516 1512 1509 1506 1503 1500 1497 1495 1493 1492 1491 1490 1489 1489 1489 1489 1489 1489 1489 1491 1494 1496
1540 1538 1538 1537 1539 1551 1557 1558 1546 1550 1552 1553 1554 1554 1554 1553 1551 1548 1546 1543 1540 1537 1534 1531 1528 1524 1521 1518 1515 1511 1508 1505 1502 1500 1497 1496 1494 1493 1492 1491 1490 1490 1489 1489 1489 1490 1491 1492 1494
1542 1543 1543 1549 1545 1542 1550 1558 1546 1549 1552 1553 1554 1554 1553 1552 1550 1548 1545 1543 1540 1538 1535 1532 1529 1526 1523 1520 1517 1514 1511 1507 1505 1502 1500 1498 1496 1494 1493 1492 1491 1491 1490 1490 1490 1490 1491 1492 1494